Edinburg, TX

3:41 AM CST on December 10, 2016 (GMT -0600)
Edinburg

Weather History for KEBG - October, 2012

Change the Weather History Date:

Sunday, October 28, 2012

  Actual Average (KMFE) Record (KMFE)
Temperature  
Mean Temperature 68 °F -  
Max Temperature 75 °F 82 °F 96 °F (2015)
Min Temperature 60 °F 63 °F 45 °F (2008)
Cooling Degree Days 2    
Growing Degree Days 18 (Base 50)    
Moisture  
Dew Point 34 °F    
Average Humidity 32    
Maximum Humidity 52    
Minimum Humidity 15    
Precipitation  
Precipitation 0.00 in - - ()
Sea Level Pressure  
Sea Level Pressure 30.18 in    
Wind  
Wind Speed 6 mph (NNE)    
Max Wind Speed 13 mph    
Max Gust Speed 17 mph    
Visibility 8 miles    
Events      
Averages and records for this station are not official NWS values.
T = Trace of Precipitation, MM = Missing Value Source: NWS Daily Summary

Daily Weather History Graph

Daily Weather History Graph

Search for Another Location

Airport or City:

Trip Planner

Search our weather history database for the weather conditions in past years. The results will help you decide how hot, cold, wet, or windy it might be!

Date:

Astronomy

Oct. 28, 2012 Rise Set
Actual Time 7:39 AM CDT 6:52 PM CDT
Civil Twilight 7:15 AM CDT 7:16 PM CDT
Nautical Twilight 6:48 AM CDT 7:43 PM CDT
Astronomical Twilight 6:21 AM CDT 8:10 PM CDT
Moon 6:10 PM CDT (10/28) 6:36 AM CDT (10/28)
Length of Visible Light 12h 00m
Length of Day
11h 13m
Waxing Gibbous, 99% of the Moon is Illuminated
Oct 28
Waxing Gibbous
Oct 29
Full
Nov 6
Last Quarter
Nov 13
New
Nov 20
First Quarter

Hourly Weather History & Observations

Time (CDT) Temp. Dew Point Humidity Pressure Visibility Wind Dir Wind Speed Gust Speed Precip Events Conditions
12:15 AM 60.8 °F 38.8 °F 44% 30.18 in 10.0 mi Calm Calm - N/A   Overcast
12:55 AM 61.7 °F 39.0 °F 43% 30.18 in 7.0 mi WNW 3.5 mph - N/A   Overcast
1:15 AM 62.1 °F 38.3 °F 41% 30.17 in 7.0 mi NNW 3.5 mph - N/A   Overcast
1:35 AM 62.2 °F 37.6 °F 40% 30.17 in 7.0 mi NNW 4.6 mph - N/A   Overcast
1:55 AM 62.6 °F 37.6 °F 40% 30.17 in 7.0 mi NNW 4.6 mph - N/A   Overcast
2:15 AM 62.6 °F 37.4 °F 39% 30.16 in 7.0 mi NNW 4.6 mph - N/A   Overcast
2:35 AM 63.0 °F 37.0 °F 38% 30.17 in 10.0 mi NW 4.6 mph - N/A   Overcast
2:55 AM 63.0 °F 37.4 °F 39% 30.17 in 10.0 mi WNW 4.6 mph - N/A   Overcast
3:15 AM 63.0 °F 37.4 °F 39% 30.17 in 7.0 mi NW 4.6 mph - N/A   Overcast
3:35 AM 63.5 °F 36.9 °F 37% 30.17 in 7.0 mi NNW 4.6 mph - N/A   Overcast
3:55 AM 63.5 °F 36.0 °F 36% 30.17 in 7.0 mi North 9.2 mph - N/A   Overcast
4:15 AM 63.5 °F 36.5 °F 37% 30.16 in 7.0 mi North 9.2 mph - N/A   Overcast
4:35 AM 63.5 °F 36.9 °F 37% 30.17 in 10.0 mi North 8.1 mph - N/A   Overcast
4:55 AM 63.5 °F 37.0 °F 38% 30.17 in 7.0 mi North 9.2 mph - N/A   Overcast
5:15 AM 63.5 °F 37.0 °F 38% 30.17 in 7.0 mi North 10.4 mph - N/A   Overcast
5:35 AM 63.5 °F 36.9 °F 37% 30.17 in 10.0 mi NNE 10.4 mph - N/A   Overcast
5:55 AM 63.5 °F 36.0 °F 36% 30.17 in 7.0 mi North 10.4 mph - N/A   Overcast
6:15 AM 63.5 °F 35.1 °F 35% 30.18 in 7.0 mi North 10.4 mph - N/A   Overcast
6:35 AM 63.1 °F 34.7 °F 35% 30.18 in 7.0 mi North 8.1 mph - N/A   Overcast
6:55 AM 63.0 °F 34.9 °F 35% 30.19 in 7.0 mi North 6.9 mph - N/A   Overcast
7:15 AM 63.0 °F 34.7 °F 35% 30.20 in 7.0 mi North 8.1 mph - N/A   Overcast
7:35 AM 62.8 °F 34.7 °F 35% 30.20 in 7.0 mi North 8.1 mph - N/A   Overcast
7:55 AM 62.6 °F 34.3 °F 35% 30.21 in 5.0 mi North 11.5 mph - N/A   Haze
8:15 AM 62.6 °F 34.7 °F 35% 30.21 in 7.0 mi North 9.2 mph - N/A   Overcast
8:35 AM 62.6 °F 34.7 °F 35% 30.22 in 5.0 mi North 11.5 mph - N/A   Haze
8:55 AM 63.0 °F 34.7 °F 35% 30.23 in 5.0 mi North 10.4 mph - N/A   Haze
9:35 AM 63.7 °F 34.0 °F 33% 30.23 in 7.0 mi North 12.7 mph - N/A   Overcast
9:55 AM 64.4 °F 34.7 °F 33% 30.24 in 7.0 mi North 10.4 mph - N/A   Overcast
10:15 AM 64.8 °F 34.5 °F 33% 30.24 in 7.0 mi North 10.4 mph - N/A   Overcast
10:35 AM 65.5 °F 34.5 °F 32% 30.24 in 7.0 mi North 10.4 mph - N/A   Overcast
10:55 AM 66.0 °F 34.7 °F 31% 30.25 in 7.0 mi NNE 8.1 mph - N/A   Overcast
11:15 AM 66.9 °F 35.6 °F 31% 30.24 in 7.0 mi NNE 6.9 mph - N/A   Overcast
11:35 AM 68.0 °F 35.8 °F 31% 30.23 in 7.0 mi North 9.2 mph - N/A   Overcast
12:15 PM 69.6 °F 34.5 °F 27% 30.23 in 5.0 mi North 8.1 mph - N/A   Haze
12:35 PM 70.3 °F 32.2 °F 24% 30.23 in 7.0 mi NNE 6.9 mph - N/A   Overcast
12:55 PM 71.1 °F 30.0 °F 22% 30.21 in 5.0 mi North 8.1 mph - N/A   Haze
1:15 PM 72.3 °F 29.1 °F 20% 30.20 in 7.0 mi NNW 6.9 mph - N/A   Overcast
1:35 PM 73.2 °F 29.7 °F 20% 30.19 in 7.0 mi North 3.5 mph - N/A   Overcast
1:55 PM 73.4 °F 26.2 °F 17% 30.18 in 5.0 mi North 10.4 mph - N/A   Haze
2:15 PM 73.4 °F 27.1 °F 18% 30.18 in 7.0 mi North 8.1 mph - N/A   Overcast
2:35 PM 73.6 °F 25.7 °F 17% 30.16 in 7.0 mi NNE 6.9 mph - N/A   Overcast
2:55 PM 73.9 °F 25.5 °F 17% 30.16 in 7.0 mi NNE 5.8 mph 17.3 mph N/A   Overcast
3:15 PM 75.2 °F 25.2 °F 16% 30.15 in 10.0 mi North 8.1 mph 17.3 mph N/A   Overcast
3:35 PM 74.8 °F 25.7 °F 16% 30.14 in 10.0 mi NNE 10.4 mph - N/A   Overcast
3:55 PM 75.2 °F 24.6 °F 15% 30.14 in 7.0 mi NNE 9.2 mph - N/A   Overcast
4:15 PM 75.0 °F 24.6 °F 15% 30.13 in 7.0 mi NNW 5.8 mph - N/A   Overcast
4:35 PM 75.2 °F 25.2 °F 16% 30.14 in 10.0 mi NE 8.1 mph - N/A   Overcast
4:55 PM 74.8 °F 25.5 °F 16% 30.14 in 10.0 mi NNE 10.4 mph - N/A   Overcast
5:15 PM 74.8 °F 25.2 °F 16% 30.14 in 7.0 mi NNE 6.9 mph - N/A   Overcast
5:35 PM 74.5 °F 26.1 °F 17% 30.14 in 10.0 mi NNE 5.8 mph - N/A   Overcast
5:55 PM 73.8 °F 26.4 °F 17% 30.14 in 10.0 mi NE 8.1 mph - N/A   Overcast
6:15 PM 73.4 °F 26.1 °F 17% 30.15 in 7.0 mi NE 10.4 mph - N/A   Overcast
6:35 PM 72.5 °F 26.1 °F 18% 30.15 in 10.0 mi NE 10.4 mph - N/A   Mostly Cloudy
6:55 PM 70.2 °F 31.1 °F 24% 30.16 in 7.0 mi East 12.7 mph - N/A   Mostly Cloudy
7:15 PM 68.9 °F 31.5 °F 25% 30.17 in 10.0 mi East 10.4 mph - N/A   Scattered Clouds
7:35 PM 67.3 °F 32.5 °F 28% 30.18 in 10.0 mi East 9.2 mph - N/A   Scattered Clouds
7:55 PM 66.4 °F 33.8 °F 30% 30.18 in 10.0 mi East 8.1 mph - N/A   Clear
8:15 PM 66.2 °F 37.2 °F 34% 30.19 in 10.0 mi East 6.9 mph - N/A   Scattered Clouds
8:55 PM 66.2 °F 43.0 °F 43% 30.19 in 10.0 mi East 10.4 mph - N/A   Overcast
9:15 PM 65.7 °F 43.3 °F 44% 30.19 in 10.0 mi East 9.2 mph - N/A   Overcast
9:35 PM 65.3 °F 43.7 °F 46% 30.20 in 10.0 mi ENE 6.9 mph - N/A   Overcast
9:55 PM 63.9 °F 43.7 °F 48% 30.20 in 10.0 mi ENE 4.6 mph - N/A   Overcast
10:15 PM 62.8 °F 43.7 °F 50% 30.20 in 10.0 mi ENE 4.6 mph - N/A   Mostly Cloudy
10:35 PM 61.7 °F 43.3 °F 51% 30.21 in 10.0 mi NE 4.6 mph - N/A   Scattered Clouds
10:55 PM 60.8 °F 43.0 °F 52% 30.20 in 10.0 mi NE 3.5 mph - N/A   Clear
11:15 PM 60.8 °F 43.0 °F 52% 30.20 in 10.0 mi NE 4.6 mph - N/A   Mostly Cloudy
11:55 PM 60.4 °F 42.8 °F 52% 30.20 in 10.0 mi NE 3.5 mph - N/A   Overcast